This demonstration page uses our WeatherBlox Daily Observations layout. Learn more.

Left ArrowRight Arrow

Hourly Observations for April 23, 2017

Temp ( °F °C ) Dew Point ( °F °C ) Humidity (%) Winds ( mph kmh ) Pressure ( in mb ) Visibility ( mi km ) Precip ( " mm )
12:16 am 00:16 Cloudy 56 13.3 52 11.1 87 87 NE 9 15 30.00 1016 9 14 0.00 0.03
12:59 am 00:59 Cloudy 56 13.3 52 11.1 87 87 NE 13 20 30.00 1016 10 16 0.00 0.03
1:46 am 01:46 Cloudy 57 13.9 52 11.1 83 83 NE 9 15 30.00 1016 10 16 0.00 0.00
1:59 am 01:59 Cloudy 57 13.9 52 11.1 83 83 NE 9 15 30.01 1016 10 16 0.00 0.00
2:15 am 02:15 Cloudy 57 13.9 52 11.1 83 83 NNE 10 17 30.00 1016 10 16 0.00 0.00
2:59 am 02:59 Cloudy with Light Rain 56 13.3 52 11.1 87 87 NNE 8 13 29.99 1016 8 13 0.07 1.78
3:59 am 03:59 Cloudy 56 13.3 52 11.1 87 87 NE 13 20 30.00 1016 8 13 0.04 1.02
4:16 am 04:16 Cloudy with Light Rain 55 12.8 52 11.1 90 90 NE 12 19 30.00 1016 4 6 0.02 0.51
4:59 am 04:59 Cloudy with Light Rain 55 12.8 51 10.6 87 87 NE 14 22 30.00 1016 10 16 0.03 0.76
5:59 am 05:59 Cloudy with Light Rain 55 12.8 47 8.3 74 74 ENE 14 22 30.02 1017 10 16 0.00 0.03
6:59 am 06:59 Cloudy 56 13.3 50 10 81 81 NE 10 17 30.04 1017 10 16 0.00 0.03
7:59 am 07:59 Cloudy 55 12.8 49 9.4 80 80 NE 13 20 30.07 1018 7 11 0.00 0.03
8:59 am 08:59 Cloudy with Mist and Fog 57 13.9 51 10.6 81 81 NE 14 22 30.07 1018 6 10 0.00 0.03
9:07 am 09:07 Cloudy with Mist and Fog 57 13.9 51 10.6 81 81 NE 14 22 30.09 1019 6 10 0.00 0.00
9:59 am 09:59 Cloudy 56 13.3 49 9.4 77 77 ENE 16 26 30.08 1019 9 14 0.00 0.00
10:59 am 10:59 Cloudy 58 14.4 50 10 75 75 NE 14 22 30.09 1019 10 16 0.00 0.00
11:59 am 11:59 Cloudy 57 13.9 48 8.9 72 72 NE 14 22 30.10 1019 10 16 0.00 0.00
12:59 pm 12:59 Cloudy with Light Rain 56 13.3 50 10 81 81 NE 12 19 30.11 1020 5 8 0.01 0.25
1:59 pm 13:59 Cloudy with Light Rain 56 13.3 50 10 81 81 NE 13 20 30.10 1019 6 10 0.01 0.25
2:35 pm 14:35 Cloudy 56 13.3 51 10.6 84 84 NE 12 19 30.09 1019 8 13 0.01 0.25
2:59 pm 14:59 Cloudy 56 13.3 51 10.6 84 84 NE 12 19 30.08 1019 9 14 0.01 0.25
3:59 pm 15:59 Cloudy with Drizzle 56 13.3 51 10.6 84 84 ENE 14 22 30.06 1018 10 16 0.00 0.03
4:59 pm 16:59 Cloudy 56 13.3 51 10.6 84 84 NE 12 19 30.06 1018 8 13 0.00 0.03
5:59 pm 17:59 Cloudy 56 13.3 51 10.6 84 84 ENE 16 26 30.07 1018 8 13 0.00 0.03
6:17 pm 18:17 Cloudy 56 13.3 52 11.1 87 87 NE 12 19 30.06 1018 9 14 0.00 0.00
6:59 pm 18:59 Cloudy with Light Rain 56 13.3 51 10.6 84 84 ENE 10 17 30.07 1018 7 11 0.01 0.25
7:24 pm 19:24 Cloudy 56 13.3 51 10.6 84 84 ENE 14 22 30.06 1018 8 13 0.00 0.03
7:59 pm 19:59 Cloudy with Light Rain 56 13.3 51 10.6 84 84 E 14 22 30.06 1018 10 16 0.00 0.03
8:28 pm 20:28 Cloudy with Light Rain 56 13.3 51 10.6 84 84 ENE 14 22 30.06 1018 9 14 0.00 0.03
8:59 pm 20:59 Cloudy 56 13.3 50 10 81 81 E 17 28 30.06 1018 10 16 0.01 0.25
9:59 pm 21:59 Cloudy with Light Rain 56 13.3 50 10 81 81 ENE 15 24 30.08 1019 10 16 0.00 0.03
10:41 pm 22:41 Cloudy with Light Rain 54 12.2 51 10.6 90 90 ENE 10 17 30.06 1018 6 10 0.06 1.52
10:59 pm 22:59 Cloudy with Light Rain 54 12.2 51 10.6 90 90 ENE 13 20 30.06 1018 4 6 0.08 2.03
11:59 pm 23:59 Cloudy with Light Rain 55 12.8 52 11.1 90 90 ENE 12 19 30.04 1017 6 10 0.02 0.51

Powered by AerisWeather